Location: B?ezina
(49.8085°N, 13.6013°E)
Time: 07:35:56
(UTC+00:00)

Okean 3 Rocket - Pass Details

Date: 19 May 2025
Orbit: 611 x 638 km, 82.5° (Epoch: 21 June)

Event Time Altitude Azimuth Distance (km) Brightness Sun altitude
Rises 21:51:11 0° 350° (N) 2,901 8.6 -18.5°
Reaches altitude 10° 21:53:25 10° 351° (N) 1,994 7.4 -18.6°
Maximum altitude 21:57:50 83° 80° (E) 634 3.5 -18.8°
Enters shadow 21:59:16 43° 163° (SSE) 878 3.8 -18.8°
